[[{"header":{"parameterUnit":"m.s-1","parameterCategory":1,"la1":30.2991,"la2":30.254,"lo1":-89.0895,"lo2":-89.0444,"dy":0.0017,"dx":0.0017,"nx":28,"ny":28,"refTime":"2025-06-11T03:00:00:Z","depth":0,"parameterNumber":2,"parameterNumberName":"U-component_of_WINDS"},"data":[0,0,0,0,0,0,0,0,0,0,0,0,0,0,0,0,0,0,0,0,0,0,0,0,0,0,0,0,0,0,0,0,0,0,0,0,0,0,0,0,0,0,0,0,0,0,0,0,0,0,0,0,0,0,0,0,0,0,-0.7979,-0.7979,0,-0.7911,-0.791,-0.7909,-0.7811,-0.7809,-0.7807,-0.7806,-0.7737,-0.7737,-0.7737,0,0,0,0,0,0,0,0,0,0,0,0,0,-0.8027,-0.8027,-0.798,-0.7979,-0.7978,-0.7911,-0.791,-0.7909,-0.7811,-0.7809,-0.7807,-0.7805,-0.7737,-0.7737,-0.7737,0,0,0,0,0,0,0,0,0,0,0,0,0,-0.7987,-0.8027,-0.798,-0.7921,-0.7915,-0.7911,-0.791,-0.7909,-0.7811,-0.7809,-0.7806,-0.7804,-0.7737,-0.7737,-0.7737,-0.7785,0,0,-0.7736,-0.7735,0,0,0,0,0,0,0,0,-0.799,-0.7986,-0.793,-0.7925,-0.7918,-0.7866,-0.7901,-0.7867,-0.7812,-0.7851,-0.7806,-0.7803,-0.7782,-0.7778,-0.7771,-0.7782,-0.7779,-0.7735,-0.7735,-0.7735,-0.7735,0,0,0,0,0,0,0,-0.7993,-0.7988,-0.7952,-0.793,-0.7922,-0.7898,-0.789,-0.7894,-0.7832,-0.7847,-0.784,-0.7833,-0.7779,-0.7772,-0.7769,-0.7778,-0.7736,-0.7735,-0.7735,-0.7735,-0.7825,-0.7827,0,0,0,0,0,0,-0.8004,-0.7991,-0.7954,-0.795,-0.7948,-0.7899,-0.789,-0.7886,-0.7831,-0.7821,-0.7835,-0.7829,-0.7773,-0.7769,-0.7766,-0.7819,-0.7735,-0.7735,-0.7735,-0.7822,-0.7825,-0.7828,0,0,0,0,0,0,-0.8005,-0.8002,-0.7957,-0.7969,-0.7961,-0.7901,-0.7897,-0.7886,-0.7878,-0.7822,-0.7811,-0.7839,-0.7771,-0.7766,-0.7781,-0.7815,-0.7735,-0.7734,-0.7819,-0.7823,-0.7827,-0.7926,0,0,0,0,0,0,-0.8007,-0.8003,-0.8021,-0.797,-0.7961,-0.7974,-0.7899,-0.7886,-0.7878,-0.7869,-0.7823,-0.7813,-0.7769,-0.7782,-0.7781,-0.7813,-0.7734,-0.7816,-0.7821,-0.7826,-0.7919,-0.7933,-0.7944,0,0,0,0,0,-0.8009,-0.8052,-0.8022,-0.8018,-0.7982,-0.7976,-0.7971,-0.7918,-0.7881,-0.7899,-0.7862,-0.7815,-0.7811,-0.7784,-0.7782,-0.7815,-0.7813,-0.7819,-0.7825,-0.7914,-0.793,-0.7944,0,0,0,0,0,0,-0.811,-0.8044,-0.801,-0.8038,-0.8013,-0.7959,-0.798,-0.7937,-0.7923,-0.7915,-0.7851,-0.7841,-0.7864,-0.784,-0.7812,-0.7859,-0.7805,-0.7811,-0.7873,-0.7888,-0.7901,-0.7906,-0.7734,0,0,0,0,0,-0.8135,-0.8135,-0.8078,-0.8107,-0.8097,-0.8041,-0.8036,-0.7997,-0.7969,-0.7959,-0.7923,-0.7898,-0.7891,-0.7888,-0.7879,-0.7915,-0.7904,-0.7936,-0.7949,-0.7959,-0.7965,-0.7982,-0.7996,-0.7847,-0.7847,-0.7847,0,0,-0.8187,-0.8151,-0.8155,-0.8127,-0.8103,-0.8105,-0.8032,-0.8038,-0.8038,-0.7959,-0.7971,-0.7944,-0.7912,-0.7937,-0.7947,-0.7919,-0.8004,-0.7967,-0.7976,-0.7976,-0.799,-0.8004,-0.8016,-0.7851,-0.7851,-0.785,0,0,-0.8283,-0.8256,-0.8278,-0.8255,-0.8219,-0.8181,-0.8187,-0.8139,-0.8118,-0.8128,-0.8069,-0.8068,-0.8058,-0.8037,-0.8026,-0.8112,-0.8068,-0.8111,-0.8177,-0.8194,-0.8205,-0.8216,-0.8247,-0.8259,-0.8117,-0.8117,-0.8117,0,-0.8353,-0.8353,-0.8294,-0.8303,-0.8292,-0.8219,-0.8241,-0.8221,-0.8185,-0.8179,-0.8148,-0.8132,-0.8106,-0.8125,-0.8146,-0.8139,-0.8143,-0.8117,-0.8208,-0.8218,-0.8226,-0.8255,-0.8267,-0.8123,-0.8122,-0.8122,-0.8121,0,-0.8441,-0.8441,-0.8463,-0.8429,-0.842,-0.8435,-0.8379,-0.8377,-0.8339,-0.8304,-0.8315,-0.828,-0.8262,-0.8264,-0.8227,-0.8278,-0.8261,-0.822,-0.8165,-0.8247,-0.8273,-0.8284,-0.8131,-0.8129,-0.8127,-0.8126,0,0,-0.86,-0.8532,-0.8541,-0.8524,-0.8479,-0.8478,-0.849,-0.8471,-0.8471,-0.8448,-0.8456,-0.8448,-0.8409,-0.8396,-0.8355,-0.8371,-0.8441,-0.8327,-0.8325,-0.835,-0.8495,-0.8527,-0.8541,-0.8411,-0.8413,-0.8414,-0.8498,0,-0.8688,-0.8703,-0.865,-0.8679,-0.8679,-0.8609,-0.8619,-0.8593,-0.856,-0.8556,-0.852,-0.8515,-0.8464,-0.8456,-0.8467,-0.8431,-0.847,-0.8424,-0.8419,-0.8419,-0.843,-0.8554,-0.8588,-0.8669,-0.8508,-0.8509,-0.8511,0,-0.8793,-0.8775,-0.8804,-0.8756,-0.8754,-0.8764,-0.8742,-0.8738,-0.8706,-0.8681,-0.8666,-0.8619,-0.8626,-0.8573,-0.8583,-0.8553,-0.8547,-0.8529,-0.853,-0.8529,-0.8471,-0.8557,-0.8693,-0.8706,-0.8526,-0.8525,-0.8524,0,-0.8907,-0.8889,-0.8904,-0.8892,-0.8836,-0.8845,-0.8822,-0.8787,-0.8779,-0.876,-0.8754,-0.8737,-0.8727,-0.8715,-0.8664,-0.863,-0.868,-0.8622,-0.866,-0.8662,-0.8675,-0.8675,-0.8813,-0.867,-0.867,-0.867,-0.867,0,-0.9011,-0.9032,-0.8954,-0.8964,-0.8984,-0.8923,-0.8945,-0.8916,-0.8885,-0.8888,-0.8826,-0.883,-0.8762,-0.8758,-0.8718,-0.8732,-0.8729,-0.8709,-0.8698,-0.8715,-0.8718,-0.8712,-0.8705,-0.8673,-0.8672,-0.8672,-0.8671,0,-0.9143,-0.9091,-0.9103,-0.9049,-0.9036,-0.9053,-0.9007,-0.9013,-0.8976,-0.898,-0.8978,-0.892,-0.8912,-0.886,-0.884,-0.8813,-0.8842,-0.882,-0.8853,-0.8846,-0.8887,-0.8884,-0.9027,-0.9043,-0.889,-0.8891,-0.8892,0,-0.9213,-0.9227,-0.9174,-0.9171,-0.9151,-0.9147,-0.9138,-0.9077,-0.907,-0.9034,-0.9045,-0.9032,-0.9018,-0.9009,-0.8965,-0.895,-0.8927,-0.8978,-0.8925,-0.8941,-0.8929,-0.8929,-0.893,-0.899,-0.8992,-0.8994,-0.8995,0,-0.9344,-0.9317,-0.9307,-0.9287,-0.9278,-0.9259,-0.9237,-0.9238,-0.9171,-0.9167,-0.9157,-0.9147,-0.9126,-0.9114,-0.909,-0.9067,-0.902,-0.9012,-0.902,-0.9038,-0.9057,-0.9047,-0.8885,-0.901,-0.9008,-0.9007,-0.9006,-0.9006,-0.9447,-0.9456,-0.942,-0.941,-0.9386,-0.9367,-0.937,-0.9333,-0.9324,-0.9302,-0.9267,-0.9263,-0.9229,-0.9193,-0.9173,-0.9168,-0.9141,-0.9153,-0.9156,-0.916,-0.9169,-0.9056,-0.9164,-0.9163,-0.9163,-0.9162,-0.9162,0,-0.9575,-0.9548,-0.9539,-0.951,-0.9502,-0.9457,-0.943,-0.9426,-0.9423,-0.9396,-0.9383,-0.9372,-0.9359,-0.9314,-0.9297,-0.9302,-0.928,-0.93,-0.9299,-0.9294,-0.9194,-0.9189,-0.9318,-0.9318,-0.9318,-0.9318,-0.9317,-0.9317,-0.9641,-0.9653,-0.9623,-0.9623,-0.9596,-0.9591,-0.9579,-0.9561,-0.9538,-0.9528,-0.9517,-0.9488,-0.9453,-0.9432,-0.9419,-0.9405,-0.9402,-0.9429,-0.9409,-0.9317,-0.9302,-0.9287,-0.9282,-0.9429,-0.9429,-0.951,-0.9511,-0.9512]},{"header":{"parameterUnit":"m.s-1","parameterCategory":1,"la1":30.2991,"la2":30.254,"lo1":-89.0895,"lo2":-89.0444,"dy":0.0017,"dx":0.0017,"nx":28,"ny":28,"refTime":"2025-06-11T03:00:00:Z","depth":0,"parameterNumber":3,"parameterNumberName":"V-component_of_WINDS"},"data":[0,0,0,0,0,0,0,0,0,0,0,0,0,0,0,0,0,0,0,0,0,0,0,0,0,0,0,0,0,0,0,0,0,0,0,0,0,0,0,0,0,0,0,0,0,0,0,0,0,0,0,0,0,0,0,0,0,0,-1.1795,-1.1794,0,-1.176,-1.176,-1.176,-1.1723,-1.1722,-1.1722,-1.1721,-1.1686,-1.1686,-1.1686,0,0,0,0,0,0,0,0,0,0,0,0,0,-1.1828,-1.1827,-1.1795,-1.1794,-1.1794,-1.176,-1.176,-1.1759,-1.1723,-1.1722,-1.1722,-1.1721,-1.1687,-1.1686,-1.1685,0,0,0,0,0,0,0,0,0,0,0,0,0,-1.1806,-1.1827,-1.1795,-1.1772,-1.1769,-1.176,-1.176,-1.1759,-1.1723,-1.1722,-1.1722,-1.1721,-1.1687,-1.1686,-1.1685,-1.1697,0,0,-1.1683,-1.1683,0,0,0,0,0,0,0,0,-1.1807,-1.1804,-1.1775,-1.1773,-1.1771,-1.1745,-1.1759,-1.1738,-1.1723,-1.1741,-1.1721,-1.1721,-1.1707,-1.1704,-1.1699,-1.1695,-1.1694,-1.1683,-1.1683,-1.1683,-1.1682,0,0,0,0,0,0,0,-1.1808,-1.1806,-1.1781,-1.1775,-1.1772,-1.1763,-1.1759,-1.1755,-1.1728,-1.1739,-1.1736,-1.1733,-1.1705,-1.17,-1.1698,-1.1693,-1.1683,-1.1683,-1.1682,-1.1682,-1.1694,-1.1695,0,0,0,0,0,0,-1.1814,-1.1807,-1.1782,-1.178,-1.1787,-1.1763,-1.1758,-1.1754,-1.1728,-1.1724,-1.1734,-1.1731,-1.1702,-1.1699,-1.1697,-1.1707,-1.1683,-1.1682,-1.1682,-1.1693,-1.1694,-1.1695,0,0,0,0,0,0,-1.1814,-1.1812,-1.1784,-1.1793,-1.1788,-1.1763,-1.1759,-1.1754,-1.1749,-1.1724,-1.1719,-1.1733,-1.1701,-1.1698,-1.1697,-1.1705,-1.1682,-1.1681,-1.1692,-1.1694,-1.1695,-1.1729,0,0,0,0,0,0,-1.1815,-1.1812,-1.1817,-1.1793,-1.1788,-1.1784,-1.1759,-1.1754,-1.1748,-1.1745,-1.1723,-1.1718,-1.17,-1.1698,-1.1696,-1.1704,-1.168,-1.1692,-1.1693,-1.1694,-1.1727,-1.1731,-1.1734,0,0,0,0,0,-1.1817,-1.1828,-1.1817,-1.1814,-1.1793,-1.1785,-1.1782,-1.1761,-1.1749,-1.1753,-1.1736,-1.1719,-1.1705,-1.1698,-1.1696,-1.1704,-1.1691,-1.1693,-1.1694,-1.1725,-1.173,-1.1734,0,0,0,0,0,0,-1.1853,-1.1824,-1.1812,-1.1816,-1.1803,-1.1779,-1.1783,-1.1767,-1.1757,-1.1755,-1.1729,-1.1724,-1.1726,-1.1715,-1.1707,-1.1712,-1.1695,-1.1697,-1.1719,-1.1724,-1.1728,-1.173,-1.168,0,0,0,0,0,-1.1862,-1.1858,-1.1833,-1.1838,-1.1833,-1.1809,-1.1805,-1.1789,-1.1775,-1.1769,-1.1753,-1.174,-1.1732,-1.1727,-1.1719,-1.1725,-1.1719,-1.1729,-1.1733,-1.1736,-1.1737,-1.1738,-1.1742,-1.17,-1.17,-1.17,0,0,-1.1879,-1.1863,-1.1862,-1.1845,-1.1834,-1.1829,-1.1805,-1.1802,-1.1798,-1.1769,-1.1766,-1.1754,-1.1737,-1.1739,-1.1739,-1.1729,-1.1747,-1.1738,-1.1741,-1.174,-1.174,-1.1744,-1.1747,-1.1702,-1.1701,-1.1701,0,0,-1.1909,-1.1897,-1.1899,-1.1888,-1.187,-1.1854,-1.1855,-1.1832,-1.1823,-1.182,-1.1797,-1.1792,-1.178,-1.1769,-1.1761,-1.1785,-1.1768,-1.1783,-1.1803,-1.1804,-1.1807,-1.181,-1.1817,-1.182,-1.1784,-1.1784,-1.1784,0,-1.1933,-1.1926,-1.1903,-1.1901,-1.1894,-1.1867,-1.1869,-1.1859,-1.1839,-1.1834,-1.1824,-1.1807,-1.1794,-1.1792,-1.1798,-1.1793,-1.1792,-1.1785,-1.1808,-1.1811,-1.1813,-1.182,-1.1823,-1.1786,-1.1786,-1.1786,-1.1786,0,-1.1956,-1.1951,-1.1955,-1.1937,-1.193,-1.193,-1.1906,-1.1902,-1.1887,-1.1872,-1.1868,-1.1852,-1.1839,-1.1837,-1.1823,-1.1833,-1.1827,-1.1813,-1.1796,-1.1819,-1.1825,-1.1827,-1.1789,-1.1788,-1.1788,-1.1787,0,0,-1.2008,-1.1976,-1.1977,-1.1968,-1.1946,-1.1942,-1.194,-1.1927,-1.1923,-1.1911,-1.1908,-1.1897,-1.1884,-1.1875,-1.1859,-1.186,-1.1878,-1.1845,-1.1845,-1.1851,-1.1886,-1.1896,-1.1899,-1.1867,-1.1867,-1.1867,-1.1887,0,-1.2033,-1.2028,-1.2007,-1.2008,-1.2003,-1.1977,-1.1975,-1.1961,-1.1946,-1.1939,-1.1923,-1.1916,-1.1899,-1.1893,-1.1893,-1.1876,-1.1884,-1.1874,-1.1863,-1.1863,-1.1867,-1.1902,-1.1913,-1.1933,-1.1889,-1.1889,-1.189,0,-1.2062,-1.205,-1.2051,-1.2027,-1.2024,-1.2023,-1.2009,-1.2003,-1.1986,-1.1975,-1.1965,-1.1946,-1.1942,-1.1926,-1.1919,-1.1912,-1.1906,-1.1897,-1.1897,-1.1895,-1.1877,-1.19,-1.1938,-1.1941,-1.1893,-1.1893,-1.1893,0,-1.2098,-1.2083,-1.2081,-1.2074,-1.2047,-1.2046,-1.2035,-1.2017,-1.201,-1.1997,-1.1992,-1.198,-1.1972,-1.1962,-1.1941,-1.1931,-1.1936,-1.1918,-1.1926,-1.1926,-1.1928,-1.1928,-1.1965,-1.1925,-1.1925,-1.1925,-1.1925,0,-1.2128,-1.2129,-1.2097,-1.2095,-1.2096,-1.2071,-1.2072,-1.2058,-1.2042,-1.2037,-1.2013,-1.2009,-1.1981,-1.1973,-1.1956,-1.1952,-1.1949,-1.194,-1.1935,-1.1941,-1.1942,-1.1937,-1.1934,-1.1926,-1.1926,-1.1926,-1.1925,0,-1.2169,-1.2147,-1.2143,-1.2117,-1.2111,-1.2112,-1.209,-1.2087,-1.2071,-1.2065,-1.2062,-1.2036,-1.2025,-1.2003,-1.1986,-1.1975,-1.1974,-1.1967,-1.198,-1.1977,-1.1986,-1.1985,-1.202,-1.2022,-1.1982,-1.1983,-1.1983,0,-1.2189,-1.2189,-1.2163,-1.2158,-1.2147,-1.214,-1.2132,-1.2108,-1.2101,-1.208,-1.208,-1.2067,-1.2056,-1.204,-1.202,-1.2006,-1.1997,-1.201,-1.1995,-1.2001,-1.1996,-1.1996,-1.1995,-1.2014,-1.2014,-1.2015,-1.2015,0,-1.2226,-1.2215,-1.2205,-1.2192,-1.2183,-1.2171,-1.2158,-1.2155,-1.2127,-1.212,-1.2109,-1.21,-1.2082,-1.207,-1.2053,-1.2041,-1.2023,-1.202,-1.2021,-1.2027,-1.2034,-1.2029,-1.1988,-1.2019,-1.2019,-1.2019,-1.2018,-1.2018,-1.2256,-1.2255,-1.2236,-1.2226,-1.2213,-1.2201,-1.2196,-1.2179,-1.2169,-1.2153,-1.2139,-1.2129,-1.211,-1.2086,-1.2074,-1.2065,-1.2056,-1.2058,-1.2058,-1.2059,-1.2061,-1.2036,-1.2062,-1.2062,-1.2062,-1.2062,-1.2062,0,-1.2292,-1.2278,-1.2269,-1.225,-1.2242,-1.2226,-1.221,-1.2204,-1.2195,-1.2179,-1.2168,-1.2154,-1.2142,-1.212,-1.2105,-1.2102,-1.2093,-1.2098,-1.2098,-1.2095,-1.207,-1.2071,-1.2106,-1.2106,-1.2106,-1.2106,-1.2106,-1.2106,-1.2309,-1.2305,-1.2292,-1.2281,-1.2267,-1.2257,-1.2249,-1.2237,-1.2224,-1.2209,-1.2199,-1.2184,-1.2166,-1.2149,-1.2136,-1.213,-1.2125,-1.2133,-1.2124,-1.2101,-1.2097,-1.2093,-1.2093,-1.2132,-1.2133,-1.215,-1.215,-1.215]}]]